This demonstration page uses our WeatherBlox Daily Observations layout. Learn more.

Left ArrowRight Arrow

Hourly Observations for March 26, 2020

Temp ( °F °C ) Dew Point ( °F °C ) Humidity (%) Winds ( mph kmh ) Pressure ( in mb ) Visibility ( mi km ) Precip ( " mm )
12:56 am 00:56 Cloudy 40 4.4 38 3.3 93 93 NNE 23 37 29.79 1009 10 16 0.00 0.00
1:56 am 01:56 Cloudy 39 3.9 38 3.3 96 96 NE 21 33 29.77 1008 10 16 0.00 0.00
2:13 am 02:13 Cloudy 39 4 37 3 93 93 NE 20 31 29.85 1011 10 16 0.00 0.00
2:56 am 02:56 Cloudy 39 3.9 37 2.8 93 93 NE 17 28 29.75 1008 10 16 0.00 0.00
3:56 am 03:56 Cloudy 39 3.9 38 3.3 96 96 NNE 14 22 29.75 1007 10 16 0.00 0.00
4:23 am 04:23 Cloudy 39 4 37 3 93 93 NNE 14 22 29.82 1010 10 16 0.00 0.00
4:56 am 04:56 Cloudy 39 3.9 37 2.8 93 93 NNE 13 20 29.75 1007 10 16 0.00 0.00
5:56 am 05:56 Cloudy 38 3.3 37 2.8 97 97 NNE 14 22 29.76 1008 10 16 0.00 0.00
6:56 am 06:56 Cloudy 38 3.3 37 2.8 97 97 NNE 13 20 29.78 1009 10 16 0.00 0.00
7:56 am 07:56 Cloudy 38 3.3 37 2.8 97 97 NNE 10 17 29.81 1010 10 16 0.00 0.00
8:56 am 08:56 Cloudy with Mist and Fog 38 3.3 37 2.8 97 97 NNE 12 19 29.84 1011 6 10 0.00 0.00
9:56 am 09:56 Cloudy with Mist and Fog 39 3.9 38 3.3 96 96 NE 10 17 29.84 1011 3 5 0.00 0.00
10:56 am 10:56 Cloudy with Mist and Fog 40 4.4 38 3.3 93 93 NNE 16 26 29.84 1011 6 10 0.00 0.00
11:56 am 11:56 Cloudy 41 5 38 3.3 89 89 NE 12 19 29.84 1011 10 16 0.00 0.00
12:10 pm 12:10 Cloudy 43 6 37 3 81 81 NE 12 19 29.86 1011 10 16 0.00 0.00
12:56 pm 12:56 Cloudy 43 6.1 39 3.9 86 86 NE 12 19 29.82 1010 10 16 0.00 0.00
1:56 pm 13:56 Cloudy 45 7.2 39 3.9 80 80 ENE 12 19 29.80 1009 10 16 0.00 0.00
2:56 pm 14:56 Cloudy 45 7.2 39 3.9 80 80 NE 9 15 29.78 1009 10 16 0.00 0.00
3:56 pm 15:56 Cloudy 45 7.2 40 4.4 83 83 ENE 9 15 29.77 1008 10 16 0.00 0.00
4:56 pm 16:56 Cloudy 44 6.7 40 4.4 85 85 ENE 9 15 29.77 1008 10 16 0.00 0.00
5:44 pm 17:44 Cloudy with Mist and Fog 45 7 41 5 87 87 ENE 13 20 29.76 1008 6 10 0.00 0.00
5:56 pm 17:56 Cloudy 44 6.7 41 5 89 89 ENE 10 17 29.76 1008 8 13 0.00 0.00
6:47 pm 18:47 Cloudy with Mist and Fog 43 6 41 5 93 93 ENE 13 20 29.78 1008 3 4 0.00 0.00
6:56 pm 18:56 Cloudy with Mist and Fog 43 6.1 41 5 93 93 ENE 13 20 29.76 1008 3 5 0.00 0.00
7:07 pm 19:07 Cloudy with Mist and Fog 43 6 41 5 93 93 ENE 13 20 29.78 1008 3 4 0.00 0.00
7:20 pm 19:20 Cloudy with Mist and Fog 43 6 41 5 93 93 ENE 12 19 29.78 1008 3 5 0.00 0.00
7:34 pm 19:34 Cloudy with Mist and Fog 43 6 41 5 93 93 ENE 13 20 29.78 1008 3 4 0.00 0.00
7:47 pm 19:47 Cloudy with Light Rain 43 6 41 5 93 93 NE 12 19 29.78 1008 2 3 0.00 0.00
7:56 pm 19:56 Cloudy with Light Rain 43 6.1 42 5.6 97 97 NE 13 20 29.75 1008 2 2 0.00 0.00
8:18 pm 20:18 Cloudy with Light Rain 43 6 43 6 100 100 ENE 9 15 29.78 1008 2 3 0.00 0.00
8:25 pm 20:25 Cloudy with Light Rain 43 6 43 6 100 100 ENE 8 13 29.79 1009 2 3 0.00 0.00
8:56 pm 20:56 Cloudy with Light Rain 43 6.1 42 5.6 97 97 NE 8 13 29.78 1009 2 3 0.00 0.00
9:05 pm 21:05 Cloudy with Light Rain 43 6 43 6 100 100 NE 9 15 29.80 1009 2 3 0.00 0.00
9:16 pm 21:16 Cloudy with Light Rain 43 6 43 6 100 100 NE 9 15 29.80 1009 2 3 0.00 0.00
9:56 pm 21:56 Cloudy with Light Rain 43 6.1 42 5.6 97 97 NE 12 19 29.77 1008 2 3 0.00 0.00
10:26 pm 22:26 Cloudy with Mist and Fog 43 6 43 6 100 100 NE 9 15 29.81 1009 4 6 0.00 0.00
10:56 pm 22:56 Cloudy with Mist and Fog 43 6.1 43 6.1 100 100 NE 12 19 29.79 1009 3 4 0.00 0.00
11:56 pm 23:56 Cloudy with Mist and Fog 43 6.1 43 6.1 100 100 NE 13 20 29.79 1009 3 4 0.00 0.00

Powered by AerisWeather